User: anonymous   Login
Location: Milton
(43.5183°N, 79.8775°W)
Time: 07:54:15
(UTC+00:00)
Language:

XW-2D - Orbit

View from above orbital plane
View from above orbital plane
View from above satellite
View from above satellite

Ground track
Ground track

The orbit data is extracted from the following two-line orbital elements,

1 40907U 15049J   24064.08942369  .00062017  00000-0  15146-2 0  9991
2 40907  97.4842  80.2968 0005969 320.8700  39.2114 15.40608042468477
Epoch (UTC): 04 March 2024 02:08:46
Eccentricity: 0.0005969
inclination: 97.4842°
perigee height: 440 km
apogee height: 448 km
right ascension of ascending node: 80.2968°
argument of perigee: 320.8700°
revolutions per day: 15.40608042
mean anomaly at epoch: 39.2114°
orbit number at epoch: 46847

The dashed part of the orbit path shows where the satellite is in the earth's shadow,  

DLR